Artemis II

operational
NORAD ID: 68538 Int'l Des: 2026-069 Owner: JSC Country: US
MEOELLIPTICALHEO_ELLIPTICAL

About Artemis II

Description loading...

Live Position

Loading 3D Globe...

Upcoming Passes

Altitude History

Altitude vs Time

uPlot chart will show altitude changes over time

Two-Line Element Set

1 68538U 26069A 26092.98100440 -.00030777 16879-4 00000+0 0 9997
2 68538 28.1492 354.5431 9814905 83.2597 352.5489 0.07782040 18
Epoch: Apr 2, 2026 • Age: 26 hours

Current Status

Altitude 209925.7 km
Velocity 1.40 km/s
Sub-Earth Point -25.64°S, 17.98°E
Launch Date Apr 1, 2026
Age 3 days
Type other

Technical Details

Classification Payload
Mass 10387.00 kg
Dry Mass 9400.00 kg
Total Mass 25848.00 kg
Length 3.50 m
Diameter 5.00 m
Span 5.00 m
Shape Cone
Manufacturer LMKSC
Bus Type Orion
Phase Status Deep Space
Owner/State JSC/US

Large Constellations

Loading constellations...